[[{"header":{"parameterUnit":"m.s-1","parameterCategory":1,"la1":30.2991,"la2":30.254,"lo1":-89.0895,"lo2":-89.0444,"dx":0.0017,"dy":0.0017,"nx":28,"ny":28,"refTime":"2022-11-08T09:00:00:Z","depth":0,"parameterNumber":2,"parameterNumberName":"U-component_of_WINDS"},"data":[0,0,0,0,0,0,0,0,0,0,0,0,0,0,0,0,0,0,0,0,0,0,0,0,0,0,0,0,0,0,0,0,0,0,0,0,0,0,0,0,0,0,0,0,0,0,0,0,0,0,0,0,0,0,0,0,0,0,-3.4225,-3.4226,0,-3.4247,-3.4247,-3.4248,-3.4175,-3.4173,-3.4171,-3.4168,-3.4192,-3.4194,-3.4197,0,0,0,0,0,0,0,0,0,0,0,0,0,-3.4121,-3.4123,-3.4225,-3.4226,-3.4226,-3.4247,-3.4247,-3.4248,-3.4175,-3.4173,-3.417,-3.4167,-3.4191,-3.4194,-3.4197,0,0,0,0,0,0,0,0,0,0,0,0,0,-3.4157,-3.4124,-3.4225,-3.4192,-3.4189,-3.4247,-3.4248,-3.4248,-3.4176,-3.4173,-3.4169,-3.4166,-3.419,-3.4194,-3.4198,-3.4289,0,0,-3.421,-3.4212,0,0,0,0,0,0,0,0,-3.4155,-3.4161,-3.4197,-3.4195,-3.4192,-3.4205,-3.4219,-3.4262,-3.4177,-3.4181,-3.4168,-3.4165,-3.4199,-3.4202,-3.4213,-3.429,-3.4291,-3.421,-3.4213,-3.4215,-3.4216,0,0,0,0,0,0,0,-3.4153,-3.416,-3.4234,-3.4197,-3.4194,-3.4176,-3.4178,-3.4227,-3.4208,-3.418,-3.4175,-3.4179,-3.4197,-3.421,-3.4213,-3.4291,-3.421,-3.4214,-3.4216,-3.4218,-3.4444,-3.4447,0,0,0,0,0,0,-3.4154,-3.4158,-3.4233,-3.4235,-3.4165,-3.4181,-3.4183,-3.4204,-3.4208,-3.4205,-3.4182,-3.4175,-3.4204,-3.4209,-3.4214,-3.4322,-3.4214,-3.4218,-3.4221,-3.444,-3.4444,-3.4448,0,0,0,0,0,0,-3.4153,-3.4162,-3.4232,-3.4195,-3.4203,-3.4186,-3.4211,-3.4206,-3.4219,-3.4208,-3.4205,-3.4198,-3.4202,-3.4208,-3.4271,-3.4321,-3.422,-3.4224,-3.4436,-3.4441,-3.4446,-3.4537,0,0,0,0,0,0,-3.415,-3.4162,-3.4196,-3.4196,-3.4205,-3.4289,-3.4214,-3.4209,-3.4226,-3.4218,-3.4223,-3.4221,-3.42,-3.4265,-3.4275,-3.4325,-3.4227,-3.4431,-3.4438,-3.4445,-3.453,-3.4545,-3.4558,0,0,0,0,0,-3.4146,-3.4221,-3.4198,-3.4208,-3.4247,-3.4292,-3.4297,-3.4271,-3.423,-3.4265,-3.4258,-3.422,-3.4314,-3.4272,-3.4282,-3.4335,-3.4428,-3.4436,-3.4444,-3.4523,-3.4542,-3.4558,0,0,0,0,0,0,-3.4227,-3.422,-3.4195,-3.4271,-3.4283,-3.428,-3.4323,-3.4292,-3.4315,-3.4307,-3.4274,-3.4276,-3.4345,-3.4345,-3.4299,-3.4423,-3.4364,-3.4374,-3.4421,-3.4438,-3.4452,-3.4452,-3.423,0,0,0,0,0,-3.4253,-3.429,-3.4282,-3.435,-3.4357,-3.4339,-3.4358,-3.4337,-3.4347,-3.4352,-3.435,-3.4362,-3.4394,-3.4416,-3.4444,-3.4529,-3.4529,-3.457,-3.4584,-3.4596,-3.4606,-3.4652,-3.467,-3.4475,-3.4475,-3.4475,0,0,-3.4309,-3.431,-3.4335,-3.4367,-3.4373,-3.4412,-3.4344,-3.4388,-3.4417,-3.4359,-3.4418,-3.4417,-3.4428,-3.4502,-3.4534,-3.4505,-3.4659,-3.4606,-3.4615,-3.4619,-3.4662,-3.468,-3.4697,-3.448,-3.4479,-3.4479,0,0,-3.4431,-3.4434,-3.4492,-3.45,-3.451,-3.4498,-3.4512,-3.4513,-3.451,-3.4569,-3.4526,-3.456,-3.4615,-3.4626,-3.4638,-3.4763,-3.473,-3.4773,-3.4849,-3.4894,-3.4909,-3.4923,-3.4969,-3.4986,-3.4783,-3.4783,-3.4783,0,-3.4499,-3.4556,-3.4526,-3.4573,-3.4589,-3.4537,-3.4596,-3.4605,-3.4625,-3.4637,-3.4603,-3.4672,-3.4676,-3.4752,-3.4783,-3.4794,-3.4809,-3.4774,-3.4909,-3.4923,-3.4935,-3.4979,-3.4996,-3.4789,-3.4788,-3.4787,-3.4787,0,-3.464,-3.468,-3.4726,-3.4746,-3.4766,-3.4819,-3.4797,-3.4822,-3.4799,-3.479,-3.4851,-3.4853,-3.4882,-3.4898,-3.4876,-3.4972,-3.4953,-3.4915,-3.4855,-3.4959,-3.5,-3.5017,-3.4796,-3.4794,-3.4793,-3.4791,0,0,-3.4815,-3.4817,-3.4835,-3.4844,-3.4851,-3.4882,-3.4932,-3.496,-3.4983,-3.4997,-3.504,-3.5088,-3.5052,-3.5066,-3.5045,-3.5084,-3.5185,-3.5041,-3.5041,-3.5069,-3.5293,-3.5323,-3.5343,-3.5162,-3.5165,-3.5168,-3.5292,0,-3.4936,-3.5023,-3.4997,-3.5084,-3.5122,-3.5073,-3.5117,-3.5127,-3.512,-3.515,-3.5142,-3.5177,-3.5127,-3.5135,-3.5172,-3.5165,-3.523,-3.5156,-3.5203,-3.5205,-3.5204,-3.5364,-3.5396,-3.5514,-3.5308,-3.531,-3.5312,0,-3.509,-3.5111,-3.5202,-3.5204,-3.5219,-3.5259,-3.5283,-3.5312,-3.5322,-3.5314,-3.533,-3.53,-3.535,-3.5289,-3.5358,-3.5308,-3.5326,-3.5325,-3.5329,-3.5334,-3.5267,-3.5376,-3.555,-3.5569,-3.5337,-3.5335,-3.5333,0,-3.5211,-3.5261,-3.5323,-3.5332,-3.5335,-3.5364,-3.5367,-3.5373,-3.5392,-3.5413,-3.5425,-3.5451,-3.5466,-3.5487,-3.5466,-3.5423,-3.5539,-3.5475,-3.5535,-3.5536,-3.5564,-3.5563,-3.5746,-3.5571,-3.5571,-3.5571,-3.557,0,-3.535,-3.5408,-3.5378,-3.5416,-3.548,-3.5449,-3.5513,-3.551,-3.5516,-3.5553,-3.5512,-3.5548,-3.5516,-3.5549,-3.5532,-3.5593,-3.5599,-3.5595,-3.5591,-3.56,-3.5601,-3.5613,-3.5605,-3.5575,-3.5574,-3.5573,-3.5573,0,-3.5497,-3.5478,-3.5543,-3.554,-3.5541,-3.5588,-3.5586,-3.5621,-3.561,-3.5658,-3.5667,-3.5651,-3.5687,-3.5667,-3.5705,-3.5694,-3.5773,-3.5756,-3.577,-3.5767,-3.5828,-3.5824,-3.6028,-3.6054,-3.586,-3.5862,-3.5864,0,-3.5589,-3.5632,-3.5634,-3.5656,-3.5662,-3.5697,-3.5716,-3.5687,-3.5708,-3.5723,-3.5757,-3.579,-3.5815,-3.5876,-3.5867,-3.5896,-3.5881,-3.595,-3.5885,-3.5894,-3.5885,-3.5883,-3.5888,-3.5964,-3.5967,-3.5968,-3.597,0,-3.5754,-3.5742,-3.5771,-3.5797,-3.582,-3.5839,-3.5855,-3.5875,-3.5846,-3.5872,-3.5909,-3.5929,-3.5967,-3.6001,-3.6025,-3.6028,-3.5996,-3.599,-3.6006,-3.6018,-3.6025,-3.6024,-3.5809,-3.5986,-3.5984,-3.5983,-3.5982,-3.5982,-3.5877,-3.5914,-3.5922,-3.5955,-3.5963,-3.5979,-3.6012,-3.6005,-3.6036,-3.6065,-3.6045,-3.6089,-3.6098,-3.6128,-3.6135,-3.6169,-3.6142,-3.6164,-3.617,-3.6177,-3.6186,-3.6017,-3.6173,-3.6173,-3.6172,-3.6172,-3.6171,0,-3.6042,-3.6044,-3.6075,-3.6098,-3.6125,-3.6089,-3.6105,-3.613,-3.6169,-3.6179,-3.6205,-3.6248,-3.628,-3.6274,-3.6303,-3.6332,-3.6318,-3.6341,-3.634,-3.6341,-3.6208,-3.6192,-3.6352,-3.6352,-3.6352,-3.6352,-3.6352,-3.6352,-3.6131,-3.6192,-3.6182,-3.6247,-3.6248,-3.6291,-3.6303,-3.6317,-3.6326,-3.6376,-3.6402,-3.6397,-3.6402,-3.6431,-3.646,-3.6457,-3.6471,-3.65,-3.6492,-3.6368,-3.6351,-3.6334,-3.6319,-3.6503,-3.6503,-3.6623,-3.6624,-3.6625]},{"header":{"parameterUnit":"m.s-1","parameterCategory":1,"la1":30.2991,"la2":30.254,"lo1":-89.0895,"lo2":-89.0444,"dx":0.0017,"dy":0.0017,"nx":28,"ny":28,"refTime":"2022-11-08T09:00:00:Z","depth":0,"parameterNumber":3,"parameterNumberName":"V-component_of_WINDS"},"data":[0,0,0,0,0,0,0,0,0,0,0,0,0,0,0,0,0,0,0,0,0,0,0,0,0,0,0,0,0,0,0,0,0,0,0,0,0,0,0,0,0,0,0,0,0,0,0,0,0,0,0,0,0,0,0,0,0,0,-3.6976,-3.6977,0,-3.7045,-3.7046,-3.7046,-3.7034,-3.7033,-3.7032,-3.7031,-3.7099,-3.7101,-3.7104,0,0,0,0,0,0,0,0,0,0,0,0,0,-3.6833,-3.6836,-3.6976,-3.6977,-3.6978,-3.7045,-3.7046,-3.7047,-3.7034,-3.7033,-3.7031,-3.703,-3.7098,-3.7101,-3.7105,0,0,0,0,0,0,0,0,0,0,0,0,0,-3.6898,-3.6837,-3.6976,-3.698,-3.6981,-3.7045,-3.7046,-3.7047,-3.7035,-3.7033,-3.7031,-3.7029,-3.7096,-3.7101,-3.7105,-3.7168,0,0,-3.7119,-3.712,0,0,0,0,0,0,0,0,-3.6894,-3.6903,-3.6979,-3.698,-3.6981,-3.7029,-3.702,-3.7088,-3.7035,-3.7014,-3.7031,-3.7028,-3.7077,-3.7083,-3.7099,-3.7172,-3.7175,-3.7119,-3.7122,-3.7123,-3.7125,0,0,0,0,0,0,0,-3.689,-3.69,-3.7003,-3.698,-3.6981,-3.6978,-3.6985,-3.7033,-3.7055,-3.7016,-3.7015,-3.7024,-3.7077,-3.7095,-3.7101,-3.7176,-3.7119,-3.7123,-3.7125,-3.7127,-3.7304,-3.7306,0,0,0,0,0,0,-3.6884,-3.6896,-3.7001,-3.7005,-3.6932,-3.6982,-3.699,-3.7016,-3.7054,-3.7058,-3.7025,-3.7023,-3.7089,-3.7096,-3.7103,-3.7181,-3.7123,-3.7128,-3.713,-3.7302,-3.7305,-3.7307,0,0,0,0,0,0,-3.6881,-3.6894,-3.6998,-3.6951,-3.6964,-3.6986,-3.7015,-3.7018,-3.7036,-3.7061,-3.7065,-3.704,-3.7087,-3.7097,-3.7153,-3.7183,-3.713,-3.7134,-3.73,-3.7303,-3.7306,-3.7337,0,0,0,0,0,0,-3.6877,-3.6893,-3.6917,-3.6951,-3.6966,-3.7047,-3.7017,-3.702,-3.7044,-3.7042,-3.7076,-3.708,-3.7087,-3.7146,-3.7157,-3.7189,-3.7137,-3.7297,-3.7301,-3.7305,-3.7333,-3.7341,-3.7347,0,0,0,0,0,-3.6872,-3.6923,-3.6919,-3.6931,-3.6998,-3.7049,-3.7058,-3.7065,-3.7046,-3.7071,-3.7088,-3.7079,-3.7178,-3.7152,-3.7164,-3.7197,-3.7295,-3.73,-3.7305,-3.733,-3.7339,-3.7347,0,0,0,0,0,0,-3.689,-3.6927,-3.6923,-3.6986,-3.7015,-3.7047,-3.7079,-3.7074,-3.7108,-3.7105,-3.7112,-3.712,-3.7177,-3.7192,-3.7163,-3.7261,-3.7234,-3.7241,-3.7249,-3.7258,-3.7265,-3.7261,-3.7141,0,0,0,0,0,-3.6902,-3.6941,-3.6971,-3.7024,-3.7038,-3.7056,-3.7079,-3.7082,-3.7112,-3.7124,-3.7144,-3.7172,-3.721,-3.7235,-3.7271,-3.7335,-3.7343,-3.7364,-3.7371,-3.7376,-3.7383,-3.7419,-3.743,-3.7322,-3.7322,-3.7322,0,0,-3.6926,-3.6951,-3.6975,-3.7028,-3.7051,-3.7091,-3.7066,-3.711,-3.714,-3.713,-3.7185,-3.72,-3.7232,-3.7293,-3.7321,-3.7308,-3.7414,-3.7382,-3.7386,-3.739,-3.7425,-3.7435,-3.7444,-3.7325,-3.7325,-3.7324,0,0,-3.6991,-3.7013,-3.7061,-3.7084,-3.7119,-3.7131,-3.7142,-3.7175,-3.7186,-3.7241,-3.7234,-3.7269,-3.7334,-3.7358,-3.7378,-3.7453,-3.7446,-3.7464,-3.7501,-3.7536,-3.7545,-3.7552,-3.758,-3.759,-3.747,-3.747,-3.747,0,-3.7017,-3.7078,-3.7085,-3.713,-3.7154,-3.7148,-3.7196,-3.7218,-3.7262,-3.7278,-3.7263,-3.7345,-3.7366,-3.7433,-3.7451,-3.7468,-3.7481,-3.7461,-3.7543,-3.755,-3.7558,-3.7584,-3.7595,-3.7472,-3.7472,-3.7472,-3.7472,0,-3.7108,-3.7151,-3.7185,-3.7229,-3.7257,-3.7303,-3.7317,-3.7343,-3.7344,-3.7358,-3.7414,-3.7439,-3.7481,-3.7496,-3.7497,-3.7564,-3.7555,-3.7541,-3.7514,-3.757,-3.7595,-3.7605,-3.7475,-3.7475,-3.7474,-3.7473,0,0,-3.7187,-3.7236,-3.7249,-3.7269,-3.7307,-3.734,-3.7386,-3.7428,-3.7451,-3.7481,-3.752,-3.7575,-3.7563,-3.7587,-3.759,-3.7621,-3.768,-3.7604,-3.7604,-3.7618,-3.7756,-3.7768,-3.7779,-3.7675,-3.7677,-3.7679,-3.7754,0,-3.7257,-3.7339,-3.7347,-3.7421,-3.7461,-3.7455,-3.7495,-3.7523,-3.7536,-3.7571,-3.7585,-3.7625,-3.7606,-3.762,-3.765,-3.7667,-3.7708,-3.7661,-3.7712,-3.7714,-3.7706,-3.7792,-3.7804,-3.7874,-3.7764,-3.7766,-3.7767,0,-3.7349,-3.7385,-3.7462,-3.7496,-3.7513,-3.7549,-3.7589,-3.7622,-3.7653,-3.7661,-3.7687,-3.7687,-3.7734,-3.7704,-3.7769,-3.7737,-3.7758,-3.7769,-3.7772,-3.7778,-3.7745,-3.7802,-3.7896,-3.7907,-3.7782,-3.7781,-3.778,0,-3.7401,-3.7468,-3.7523,-3.7541,-3.7581,-3.7607,-3.7625,-3.7654,-3.7679,-3.7713,-3.7729,-3.7767,-3.7789,-3.7818,-3.7828,-3.7805,-3.7893,-3.7864,-3.7902,-3.7901,-3.7921,-3.792,-3.8022,-3.7933,-3.7932,-3.7932,-3.7932,0,-3.7479,-3.7527,-3.7547,-3.7582,-3.7635,-3.7644,-3.7697,-3.7713,-3.7739,-3.7777,-3.7773,-3.7808,-3.7818,-3.7855,-3.7862,-3.7916,-3.7925,-3.7933,-3.7935,-3.7934,-3.7933,-3.7949,-3.7945,-3.7935,-3.7934,-3.7934,-3.7933,0,-3.7547,-3.7562,-3.7623,-3.7656,-3.7666,-3.7704,-3.7733,-3.7766,-3.7778,-3.7825,-3.7837,-3.7857,-3.79,-3.7912,-3.7963,-3.7968,-3.8032,-3.8028,-3.8022,-3.8022,-3.806,-3.8057,-3.8176,-3.8193,-3.8091,-3.8092,-3.8093,0,-3.7597,-3.7634,-3.7672,-3.7697,-3.7717,-3.7757,-3.7783,-3.7792,-3.7819,-3.7858,-3.7886,-3.7929,-3.7964,-3.8032,-3.8051,-3.809,-3.8089,-3.8128,-3.8094,-3.8093,-3.8091,-3.8089,-3.8094,-3.8134,-3.8135,-3.8136,-3.8137,0,-3.7684,-3.7689,-3.7727,-3.7768,-3.7799,-3.7832,-3.7863,-3.7883,-3.7897,-3.7927,-3.7972,-3.7999,-3.8052,-3.8094,-3.8134,-3.8152,-3.8147,-3.8147,-3.8158,-3.8159,-3.8154,-3.8159,-3.8041,-3.8145,-3.8144,-3.8143,-3.8143,-3.8143,-3.7745,-3.7778,-3.7811,-3.7853,-3.7878,-3.7907,-3.794,-3.7958,-3.7995,-3.804,-3.8043,-3.8091,-3.8122,-3.8175,-3.8195,-3.8233,-3.8221,-3.8237,-3.8241,-3.8245,-3.8249,-3.8147,-3.824,-3.8239,-3.8239,-3.8239,-3.8239,0,-3.7833,-3.7854,-3.7893,-3.7937,-3.7971,-3.7964,-3.7998,-3.8026,-3.8069,-3.8098,-3.8133,-3.8184,-3.8226,-3.8248,-3.8289,-3.8315,-3.8314,-3.8326,-3.8325,-3.8329,-3.8256,-3.8243,-3.8326,-3.8326,-3.8326,-3.8326,-3.8326,-3.8326,-3.7883,-3.794,-3.7949,-3.8018,-3.8038,-3.8087,-3.8107,-3.8134,-3.8158,-3.8216,-3.8251,-3.8265,-3.8292,-3.8335,-3.8372,-3.8378,-3.8394,-3.8407,-3.8411,-3.8343,-3.8334,-3.8326,-3.8314,-3.841,-3.841,-3.8482,-3.8482,-3.8483]}]]